Sturgeon Bay, WI

4:50 AM CDT on July 27, 2017 (GMT -0500)
Door County Cherryland

Weather History for KSUE - April, 2013

Change the Weather History Date:

Friday, April 19, 2013

  Actual Average Record
Temperature  
Mean Temperature 35 °F -  
Max Temperature 42 °F 53 °F 79 °F (1915)
Min Temperature 26 °F 35 °F 19 °F (1926)
Degree Days  
Heating Degree Days 30    
Moisture  
Dew Point 23 °F    
Average Humidity 64    
Maximum Humidity 87    
Minimum Humidity 44    
Precipitation  
Precipitation 0.00 in - - ()
Sea Level Pressure  
Sea Level Pressure 29.39 in    
Wind  
Wind Speed 19 mph (WSW)    
Max Wind Speed 26 mph    
Max Gust Speed 36 mph    
Visibility 10 miles    
Events      
Averages and records for this station are not official NWS values.
T = Trace of Precipitation, MM = Missing Value Source: NWS Daily Summary

Daily Weather History Graph

Daily Weather History Graph

Search for Another Location

Airport or City:

Trip Planner

Search our weather history database for the weather conditions in past years. The results will help you decide how hot, cold, wet, or windy it might be!

Date:

Astronomy

Apr. 19, 2013 Rise Set
Actual Time 5:57 AM CDT 7:40 PM CDT
Civil Twilight 5:27 AM CDT 8:11 PM CDT
Nautical Twilight 4:49 AM CDT 8:49 PM CDT
Astronomical Twilight 4:08 AM CDT 9:30 PM CDT
Moon 1:09 PM CDT (4/19) 2:29 AM CDT (4/19)
Length of Visible Light 14h 44m
Length of Day
13h 42m
First Quarter, 62% of the Moon is Illuminated
Apr 19
First Quarter
Apr 25
Full
May 2
Last Quarter
May 9
New
May 17
First Quarter

Hourly Weather History & Observations

Time (CDT) Temp. Windchill Dew Point Humidity Pressure Visibility Wind Dir Wind Speed Gust Speed Precip Events Conditions
12:15 AM 44.6 °F 36.1 °F 39.2 °F 81% 29.29 in 10.0 mi SSW 21.9 mph 26.5 mph N/A   Overcast
12:35 AM 44.6 °F 37.2 °F 39.2 °F 81% 29.28 in 10.0 mi SSW 17.3 mph 27.6 mph N/A   Overcast
12:55 AM 42.8 °F 35.1 °F 39.2 °F 87% 29.26 in 10.0 mi SSW 16.1 mph - N/A   Overcast
1:35 AM 42.8 °F 34.3 °F 35.6 °F 76% 29.27 in 10.0 mi SSW 19.6 mph 28.8 mph N/A   Overcast
1:55 AM 42.8 °F 35.4 °F 35.6 °F 76% 29.25 in 10.0 mi SSW 15.0 mph 24.2 mph N/A   Overcast
2:15 AM 41.0 °F 32.5 °F 33.8 °F 76% 29.26 in 10.0 mi SSW 17.3 mph 20.7 mph N/A   Overcast
2:35 AM 39.2 °F 30.5 °F 33.8 °F 81% 29.25 in 10.0 mi SSW 16.1 mph 24.2 mph N/A   Mostly Cloudy
2:55 AM 39.2 °F 29.8 °F 33.8 °F 81% 29.25 in 10.0 mi SSW 18.4 mph 26.5 mph N/A   Overcast
3:15 AM 39.2 °F 29.0 °F 33.8 °F 81% 29.24 in 10.0 mi SSW 21.9 mph 29.9 mph N/A   Overcast
3:35 AM 39.2 °F 29.8 °F 30.2 °F 70% 29.23 in 10.0 mi SSW 18.4 mph 23.0 mph N/A   Mostly Cloudy
3:55 AM 37.4 °F 28.9 °F 30.2 °F 75% 29.23 in 10.0 mi SSW 13.8 mph 27.6 mph N/A   Overcast
4:15 AM 37.4 °F 27.2 °F 30.2 °F 75% 29.23 in 10.0 mi SSW 19.6 mph 25.3 mph N/A   Overcast
4:35 AM 37.4 °F 27.2 °F 30.2 °F 75% 29.22 in 10.0 mi SSW 19.6 mph 28.8 mph N/A   Overcast
4:55 AM 37.4 °F 27.5 °F 28.4 °F 70% 29.22 in 10.0 mi SSW 18.4 mph 25.3 mph N/A   Overcast
5:15 AM 35.6 °F 25.9 °F 28.4 °F 75% 29.22 in 10.0 mi SSW 16.1 mph 27.6 mph N/A   Overcast
5:55 AM 35.6 °F 24.8 °F 28.4 °F 75% 29.21 in 10.0 mi SSW 19.6 mph 27.6 mph N/A   Overcast
6:15 AM 35.6 °F 24.5 °F 28.4 °F 75% 29.21 in 10.0 mi SSW 20.7 mph 28.8 mph N/A   Overcast
6:35 AM 35.6 °F 25.5 °F 26.6 °F 70% 29.20 in 10.0 mi SSW 17.3 mph 26.5 mph N/A   Overcast
6:55 AM 35.6 °F 25.9 °F 26.6 °F 70% 29.20 in 10.0 mi SSW 16.1 mph 26.5 mph N/A   Overcast
7:15 AM 35.6 °F 25.9 °F 28.4 °F 75% 29.20 in 10.0 mi SW 16.1 mph 24.2 mph N/A   Overcast
7:35 AM 35.6 °F 24.5 °F 26.6 °F 70% 29.19 in 10.0 mi SW 20.7 mph 25.3 mph N/A   Overcast
7:55 AM 35.6 °F 25.2 °F 26.6 °F 70% 29.19 in 10.0 mi SW 18.4 mph 29.9 mph N/A   Overcast
8:15 AM 35.6 °F 24.8 °F 26.6 °F 70% 29.19 in 10.0 mi SW 19.6 mph 27.6 mph N/A   Overcast
8:35 AM 35.6 °F 24.5 °F 26.6 °F 70% 29.18 in 10.0 mi SW 20.7 mph 31.1 mph N/A   Overcast
8:55 AM 35.6 °F 24.2 °F 26.6 °F 70% 29.18 in 10.0 mi SW 21.9 mph 26.5 mph N/A   Overcast
9:15 AM 35.6 °F 23.7 °F 26.6 °F 70% 29.17 in 10.0 mi SW 24.2 mph 32.2 mph N/A   Overcast
9:55 AM 35.6 °F 24.0 °F 28.4 °F 75% 29.18 in 10.0 mi SW 23.0 mph 32.2 mph N/A   Overcast
10:15 AM 35.6 °F 24.2 °F 28.4 °F 75% 29.18 in 10.0 mi WSW 21.9 mph 28.8 mph N/A   Overcast
10:35 AM 35.6 °F 23.7 °F 28.4 °F 75% 29.19 in 10.0 mi WSW 24.2 mph 31.1 mph N/A   Overcast
10:55 AM 35.6 °F 24.5 °F 28.4 °F 75% 29.20 in 10.0 mi WSW 20.7 mph 31.1 mph N/A   Overcast
11:15 AM 35.6 °F 24.5 °F 28.4 °F 75% 29.21 in 10.0 mi West 20.7 mph 29.9 mph N/A   Overcast
11:35 AM 35.6 °F 23.7 °F 28.4 °F 75% 29.23 in 10.0 mi West 24.2 mph 29.9 mph N/A   Mostly Cloudy
11:55 AM 35.6 °F 24.0 °F 26.6 °F 70% 29.24 in 10.0 mi West 23.0 mph 27.6 mph N/A   Overcast
12:15 PM 35.6 °F 25.9 °F 26.6 °F 70% 29.26 in 10.0 mi West 16.1 mph 27.6 mph N/A   Overcast
12:35 PM 35.6 °F 24.8 °F 24.8 °F 65% 29.27 in 10.0 mi West 19.6 mph 32.2 mph N/A   Overcast
12:55 PM 35.6 °F 24.2 °F 23.0 °F 60% 29.28 in 10.0 mi West 21.9 mph 31.1 mph N/A   Overcast
1:15 PM 35.6 °F 24.2 °F 23.0 °F 60% 29.30 in 10.0 mi West 21.9 mph 31.1 mph N/A   Overcast
1:35 PM 35.6 °F 23.2 °F 23.0 °F 60% 29.31 in 10.0 mi West 26.5 mph 32.2 mph N/A   Overcast
1:55 PM 37.4 °F 26.9 °F 21.2 °F 52% 29.33 in 10.0 mi West 20.7 mph 34.5 mph N/A   Overcast
2:15 PM 37.4 °F 26.6 °F 21.2 °F 52% 29.35 in 10.0 mi West 21.9 mph 33.4 mph N/A   Overcast
2:35 PM 37.4 °F 26.4 °F 21.2 °F 52% 29.36 in 10.0 mi West 23.0 mph 35.7 mph N/A   Overcast
2:55 PM 37.4 °F 26.9 °F 19.4 °F 48% 29.37 in 10.0 mi West 20.7 mph 29.9 mph N/A   Overcast
3:15 PM 35.6 °F 24.5 °F 21.2 °F 56% 29.39 in 10.0 mi West 20.7 mph 29.9 mph N/A   Overcast
3:35 PM 35.6 °F 24.5 °F 21.2 °F 56% 29.41 in 10.0 mi West 20.7 mph 34.5 mph N/A   Overcast
3:55 PM 35.6 °F 25.9 °F 19.4 °F 52% 29.43 in 10.0 mi WNW 16.1 mph 24.2 mph N/A   Overcast
4:15 PM 35.6 °F 24.8 °F 19.4 °F 52% 29.46 in 10.0 mi WNW 19.6 mph 27.6 mph N/A   Overcast
4:35 PM 35.6 °F 24.0 °F 19.4 °F 52% 29.47 in 10.0 mi West 23.0 mph 29.9 mph N/A   Overcast
4:55 PM 35.6 °F 24.2 °F 19.4 °F 52% 29.50 in 10.0 mi WNW 21.9 mph 27.6 mph N/A   Overcast
5:15 PM 33.8 °F 23.5 °F 15.8 °F 48% 29.52 in 10.0 mi WNW 16.1 mph 27.6 mph N/A   Overcast
5:35 PM 33.8 °F 21.9 °F 15.8 °F 48% 29.55 in 10.0 mi WNW 21.9 mph 32.2 mph N/A   Overcast
5:55 PM 33.8 °F 22.5 °F 15.8 °F 48% 29.56 in 10.0 mi WNW 19.6 mph 24.2 mph N/A   Overcast
6:15 PM 32.0 °F 20.5 °F 15.8 °F 51% 29.58 in 10.0 mi WNW 18.4 mph 26.5 mph N/A   Overcast
6:35 PM 32.0 °F 20.1 °F 12.2 °F 44% 29.59 in 10.0 mi WNW 19.6 mph 26.5 mph N/A   Overcast
6:55 PM 32.0 °F 19.8 °F 15.8 °F 51% 29.61 in 10.0 mi WNW 20.7 mph 26.5 mph N/A   Overcast
7:15 PM 30.2 °F 18.5 °F 12.2 °F 47% 29.62 in 10.0 mi WNW 17.3 mph 24.2 mph N/A   Scattered Clouds
7:35 PM 30.2 °F 20.2 °F 14.0 °F 51% 29.64 in 10.0 mi WNW 12.7 mph 18.4 mph N/A   Mostly Cloudy
7:55 PM 30.2 °F 18.1 °F 12.2 °F 47% 29.65 in 10.0 mi NW 18.4 mph 29.9 mph N/A   Overcast
8:15 PM 30.2 °F 19.3 °F 12.2 °F 47% 29.67 in 10.0 mi NW 15.0 mph 25.3 mph N/A   Overcast
8:35 PM 28.4 °F 17.5 °F 15.8 °F 59% 29.69 in 10.0 mi NW 13.8 mph 18.4 mph N/A   Overcast
8:55 PM 28.4 °F 16.2 °F 14.0 °F 55% 29.70 in 10.0 mi NW 17.3 mph 23.0 mph N/A   Overcast
9:15 PM 28.4 °F 17.0 °F 12.2 °F 51% 29.72 in 10.0 mi NNW 15.0 mph 19.6 mph N/A   Overcast
9:35 PM 28.4 °F 15.8 °F 15.8 °F 59% 29.73 in 10.0 mi NW 18.4 mph 24.2 mph N/A   Overcast
9:55 PM 28.4 °F 15.8 °F 12.2 °F 51% 29.74 in 10.0 mi NNW 18.4 mph 26.5 mph N/A   Overcast
10:15 PM 26.6 °F 13.4 °F 12.2 °F 55% 29.76 in 10.0 mi NW 18.4 mph 24.2 mph N/A   Overcast
10:35 PM 26.6 °F 13.1 °F 12.2 °F 55% 29.77 in 10.0 mi NW 19.6 mph 29.9 mph N/A   Overcast
10:55 PM 26.6 °F 13.8 °F 14.0 °F 59% 29.78 in 9.0 mi NNW 17.3 mph 21.9 mph N/A   Overcast
11:15 PM 26.6 °F 14.3 °F 14.0 °F 59% 29.79 in 10.0 mi NW 16.1 mph 24.2 mph N/A   Overcast
11:35 PM 26.6 °F 14.7 °F 12.2 °F 55% 29.80 in 10.0 mi NW 15.0 mph 23.0 mph N/A   Overcast
11:55 PM 26.6 °F 14.3 °F 12.2 °F 55% 29.82 in 10.0 mi NW 16.1 mph 21.9 mph N/A   Overcast